Theta_e
324 323 325 328 327 327 326 327 327 326 323 322 322 322 321 321 320 319 319 329 333 336 334 334 336 338 338 339 336 332 330 328 325 324 323 323 323 323 324 325 325 324 324
325 324 322 321 319 319 320 323 325 325 324 324 324 324 323 322 323 323 322 322 331 333 336 335 335 336 338 339 339 337 334 331 329 327 325 324 324 324 323 324 323 323 323
328 326 325 324 320 321 322 323 325 325 325 326 325 326 327 326 325 325 325 324 325 329 333 336 336 336 336 338 338 338 337 335 332 330 328 327 325 325 324 323 323 322 323
332 328 327 328 326 323 325 325 325 325 325 325 325 326 328 329 329 327 327 327 326 328 328 334 337 337 336 335 336 337 337 336 335 333 331 329 327 326 324 324 324 323 323
334 332 331 331 331 330 328 327 327 326 326 327 329 329 329 329 327 328 326 326 326 328 326 329 330 330 332 332 333 335 335 335 335 334 333 331 329 328 326 325 325 324 323
335 334 332 331 330 329 329 328 328 329 330 330 330 328 327 327 327 326 326 327 326 325 326 326 325 323 326 330 331 332 332 332 333 333 332 332 332 330 328 327 326 324 324
338 336 336 334 335 333 332 332 331 330 328 327 327 324 324 325 325 325 326 325 324 322 318 317 316 316 318 324 325 325 326 327 327 327 329 331 331 332 331 330 328 326 325
333 333 333 334 334 333 332 332 331 329 329 329 325 323 317 316 318 318 319 321 320 319 316 316 315 314 314 315 314 318 319 322 325 326 326 326 327 329 330 331 330 329 328
322 322 324 327 328 329 328 329 329 327 325 326 328 323 316 309 312 316 317 317 316 315 315 315 315 315 311 308 309 310 315 318 321 324 325 325 325 326 327 328 329 331 330
315 316 316 316 315 316 316 318 319 320 318 317 318 321 319 319 314 311 313 314 315 316 314 314 312 310 308 307 309 312 313 315 319 321 323 323 323 325 327 328 328 328 328
313 313 312 312 312 313 313 314 315 315 315 313 313 312 312 313 314 312 307 309 313 313 311 309 309 308 307 306 305 308 311 313 315 317 320 321 322 322 322 322 323 325 327
310 310 310 309 309 309 309 309 310 311 312 312 312 311 311 311 310 310 308 309 308 311 308 308 307 306 305 303 306 307 308 310 313 316 318 319 318 317 317 319 321 322 323
308 305 306 305 305 306 307 307 307 308 310 311 311 312 316 314 314 314 311 309 311 311 306 303 301 302 301 299 302 303 306 307 311 316 319 318 315 314 315 318 321 322 323
303 303 303 303 303 304 304 304 305 307 310 310 311 311 311 308 310 312 314 311 307 308 305 300 299 297 299 300 302 303 302 305 309 312 313 311 310 311 316 316 317 318 321
301 301 301 301 301 301 302 302 302 304 305 307 307 309 309 308 308 309 308 310 308 303 303 298 296 296 296 298 300 300 299 304 306 308 308 308 308 308 310 313 315 316 319
300 299 299 298 298 299 299 299 301 302 303 303 304 306 305 305 304 305 304 305 304 304 300 297 295 295 298 299 299 299 297 299 302 304 304 305 306 307 307 308 310 313 315
298 297 297 297 297 296 297 297 298 299 300 301 303 302 301 301 301 299 299 300 300 301 299 295 295 295 293 292 295 297 297 293 295 299 301 303 304 305 305 304 306 308 309
297 296 296 295 295 296 295 295 296 297 297 296 298 299 298 299 296 297 297 296 295 293 297 295 294 292 292 294 295 292 294 294 290 295 297 298 300 302 302 302 303 303 304
295 295 295 294 294 295 294 294 295 294 293 293 294 295 294 292 290 290 290 292 292 295 294 294 291 293 293 291 288 288 289 288 290 293 293 295 295 297 298 298 298 299 300
294 294 294 294 293 293 294 294 294 292 292 292 292 290 290 290 290 288 288 287 289 289 289 293 292 291 289 287 285 282 282 283 283 286 288 291 292 293 294 294 294 294 295
293 293 293 293 294 295 295 295 296 294 293 291 291 290 291 292 293 292 287 285 286 285 284 283 283 283 281 281 280 280 279 279 280 280 280 280 281 281 285 289 290 291 292
291 292 292 293 294 294 295 296 296 293 291 288 286 286 287 289 289 291 292 291 288 283 281 279 277 279 278 279 279 279 276 277 275 280 278 279 280 279 281 281 291 291 290
290 291 293 293 292 292 294 295 294 289 287 284 283 284 285 287 286 285 288 289 290 290 288 282 279 278 279 280 279 278 278 277 276 279 278 277 279 279 281 284 290 291 291
288 290 292 292 290 289 293 293 291 283 282 283 284 285 285 285 286 284 282 281 282 282 283 284 281 281 281 281 281 280 278 278 279 279 279 274 278 279 280 281 289 290 290
287 289 289 288 285 285 291 290 285 282 282 282 284 285 285 285 289 288 283 281 279 281 286 287 286 285 285 285 284 280 277 275 275 277 279 277 277 276 278 280 281 289 289
285 288 287 287 287 283 290 289 285 281 280 281 283 284 289 286 288 288 282 279 278 279 280 280 279 282 282 282 285 280 278 269 271 272 278 273 274 274 271 278 279 280 280
Wind_Speed
5 5 4 4 4 3 4 5 4 4 5 5 4 5 5 4 5 3 3 9 9 8 8 8 8 8 8 9 9 8 8 8 5 4 3 2 2 2 3 4 4 5 4
4 3 4 4 4 4 4 4 4 3 3 2 3 3 5 5 5 5 4 4 10 11 10 10 9 9 10 11 11 11 12 9 8 7 6 4 4 3 2 3 3 3 3
4 5 3 2 3 3 4 2 2 1 2 2 3 4 4 6 5 6 4 4 4 9 11 11 10 10 11 12 13 13 11 12 11 10 8 7 7 6 4 4 4 3 4
6 4 3 3 4 3 3 2 2 2 3 3 3 5 4 4 5 4 4 4 3 4 7 14 10 9 9 9 12 14 14 12 13 13 12 10 9 8 7 6 7 5 5
7 5 4 4 4 3 3 3 3 3 3 4 4 3 3 3 4 3 5 5 4 4 3 4 6 4 5 7 10 12 14 13 10 12 14 13 12 10 9 9 9 9 8
9 6 4 4 3 2 2 2 4 3 2 2 3 3 4 4 4 5 6 4 4 2 4 6 4 3 6 8 8 9 11 13 14 12 9 13 15 14 14 13 12 12 11
5 5 3 2 2 1 2 2 1 2 1 0 2 3 3 5 5 6 4 4 3 5 5 5 4 4 5 16 16 14 12 12 13 12 11 9 10 16 17 17 16 14 14
5 5 4 3 3 1 2 2 2 1 2 2 3 2 3 4 3 3 3 2 4 3 5 6 6 6 5 5 8 13 12 12 12 12 11 10 10 11 11 18 18 17 18
6 6 5 3 2 1 2 2 2 3 3 2 3 3 3 2 2 3 3 3 3 3 3 5 6 7 8 6 7 7 12 11 11 12 12 10 10 10 10 10 11 18 21
6 5 5 4 3 2 2 1 2 1 1 2 3 2 2 1 2 3 2 2 3 3 3 5 6 7 6 6 9 11 12 12 12 13 13 11 10 11 11 10 10 11 12
5 5 5 4 3 2 2 3 2 2 0 1 2 1 2 2 3 4 3 3 3 3 4 5 5 5 7 4 6 8 11 11 12 12 12 9 9 11 11 11 13 13 10
3 4 5 4 3 3 2 2 2 2 2 3 2 3 3 3 2 2 3 4 3 3 4 4 4 5 5 4 8 12 12 13 14 12 9 8 10 10 10 11 13 14 15
3 3 3 2 1 1 2 2 2 3 3 2 2 2 2 2 3 3 3 2 3 3 3 3 4 4 4 3 5 8 10 11 12 14 13 14 14 13 11 11 15 16 15
4 4 4 3 2 2 2 2 2 3 4 3 2 2 2 2 2 1 1 3 3 3 2 4 3 3 3 3 6 8 4 9 12 14 13 13 12 14 17 13 15 17 12
3 4 5 3 1 1 1 2 2 3 1 1 3 2 2 2 1 1 1 0 2 3 3 2 2 3 2 3 5 3 3 8 11 13 12 12 11 12 15 18 17 19 21
3 3 4 2 1 1 2 2 2 2 1 1 1 1 1 1 1 1 1 1 1 1 2 1 2 2 3 2 4 3 4 6 10 10 11 12 11 12 13 16 18 20 20
5 4 3 2 1 1 2 2 1 1 2 3 4 2 1 0 2 3 2 2 2 1 2 1 2 1 3 3 3 3 2 3 3 7 9 8 10 11 12 13 15 17 18
5 3 2 2 2 2 2 2 1 1 2 1 3 4 2 3 4 3 3 3 2 2 2 3 2 1 2 1 1 1 2 3 2 5 7 8 9 11 13 14 13 15 15
5 4 3 3 3 2 2 2 2 5 6 5 5 5 3 4 3 3 2 2 1 1 1 2 2 1 1 2 2 3 3 3 2 7 6 8 9 9 10 11 12 14 15
4 4 4 4 3 2 1 1 4 5 5 5 5 5 4 5 4 3 4 3 2 3 2 3 3 2 2 2 3 2 3 4 3 4 6 7 8 9 9 10 11 12 12
4 3 3 4 3 2 2 1 4 5 6 6 5 5 4 6 8 6 2 3 3 2 2 2 2 2 2 3 2 2 2 1 2 4 3 3 3 4 4 6 6 8 8
4 4 4 4 3 3 2 3 5 5 5 6 5 4 3 5 6 9 9 8 5 2 2 2 2 2 2 2 1 1 1 2 1 2 4 3 3 3 3 3 6 9 7
4 5 4 3 4 3 4 5 7 4 5 4 4 4 2 3 4 5 6 7 7 9 7 4 4 2 2 2 2 2 1 1 1 3 2 2 3 2 3 4 5 8 6
5 4 4 4 4 3 6 6 9 5 4 4 4 4 4 4 4 4 4 4 3 3 4 4 5 4 4 4 3 3 3 1 1 1 2 1 3 2 3 3 5 7 7
3 3 3 5 5 4 8 9 8 4 4 3 4 4 4 4 4 5 3 3 2 1 4 7 6 4 4 3 4 3 1 3 1 1 3 1 3 2 3 3 4 10 8
3 3 4 4 7 5 9 8 7 3 4 3 3 2 8 5 5 4 4 3 3 2 2 2 2 1 3 3 6 2 3 3 2 2 2 2 3 2 4 2 2 3 4
Wind_Direction
174 163 194 193 203 207 202 215 224 222 222 233 244 230 243 242 245 247 211 216 209 217 232 242 254 260 251 226 222 214 202 192 203 213 220 207 175 132 114 107 95 103 86
171 173 170 177 194 191 205 196 201 234 240 233 266 262 253 248 243 237 225 220 216 213 220 233 245 258 264 267 253 233 224 217 210 215 218 225 212 186 160 149 152 146 138
167 163 165 202 209 203 217 227 262 185 247 266 264 268 266 257 248 242 229 221 228 235 220 229 235 245 255 265 272 273 252 230 221 222 219 218 218 211 206 224 202 189 161
169 168 177 198 217 211 201 203 222 278 267 258 260 260 264 271 255 258 272 265 231 232 218 230 232 244 260 274 289 290 279 254 239 229 225 222 223 221 215 217 222 203 206
176 168 191 219 211 193 199 209 238 199 235 254 247 250 282 309 299 287 287 272 240 237 234 213 228 273 288 285 292 310 316 301 274 253 236 229 223 224 223 218 218 213 209
182 180 184 197 191 184 233 234 225 250 246 292 299 304 293 285 284 276 265 258 247 296 121 110 88 43 20 10 360 342 347 351 349 342 298 258 234 221 220 219 219 222 215
151 170 197 176 62 229 231 204 206 262 308 46 341 297 292 270 272 263 256 240 256 116 123 112 107 81 65 65 55 44 28 9 357 347 336 333 291 244 230 223 218 220 220
86 103 111 118 82 51 14 29 50 335 263 222 249 258 286 320 304 321 306 210 123 140 127 127 114 101 91 85 65 46 28 11 357 351 350 343 327 318 281 248 233 220 214
75 66 59 61 59 22 302 314 257 221 264 285 286 244 289 250 311 338 6 27 105 131 161 119 107 97 91 85 60 40 34 19 4 353 343 336 334 324 310 303 261 245 242
76 70 68 58 52 35 34 355 14 3 56 286 330 281 226 195 269 302 341 351 38 59 55 81 81 87 88 90 76 50 32 17 7 355 346 345 337 332 332 330 327 296 264
89 81 69 60 53 43 36 31 20 33 71 220 197 308 313 274 217 226 259 293 32 64 59 70 93 84 79 63 75 53 33 17 2 347 334 329 347 355 340 325 313 302 303
113 96 88 77 67 61 30 358 334 311 251 227 234 249 233 241 287 230 252 252 208 105 81 64 70 70 68 55 59 61 31 15 358 347 343 3 20 359 343 332 325 303 275
128 127 113 88 77 54 12 350 320 291 275 226 245 276 301 283 266 244 225 247 232 163 125 65 55 61 71 69 60 58 39 21 8 10 34 38 23 3 349 347 347 320 275
136 138 123 100 91 50 8 347 315 297 286 206 122 18 312 281 289 259 269 187 235 218 117 119 46 53 48 65 73 63 30 26 19 23 37 37 19 9 14 11 8 359 316
135 131 114 114 79 51 0 326 294 289 320 228 147 144 229 243 306 6 346 300 203 213 188 74 140 50 54 57 85 67 39 17 26 29 28 25 19 20 14 13 14 15 14
127 119 100 114 86 32 345 340 304 312 304 153 146 98 201 224 137 58 49 37 66 134 144 120 77 85 29 93 65 66 55 39 29 16 19 16 20 27 26 17 19 24 26
114 102 107 97 109 60 354 344 275 312 337 165 104 125 92 144 114 81 71 68 67 76 162 93 97 41 56 44 28 32 72 83 40 17 15 18 26 32 38 27 24 26 28
95 115 119 116 97 57 8 359 298 23 128 96 104 106 82 79 61 65 75 63 58 61 137 131 139 140 102 9 330 101 14 74 61 30 34 21 25 38 44 42 29 26 30
140 141 126 107 87 57 26 358 72 105 91 73 67 85 86 98 76 57 74 99 102 101 99 108 129 111 117 83 14 6 52 29 11 29 30 26 34 39 40 45 41 33 31
141 134 133 126 113 91 70 49 116 108 101 91 87 78 66 70 77 91 75 54 52 81 67 115 101 144 93 38 75 49 21 29 358 1 9 25 30 25 34 55 48 32 26
122 143 146 139 136 124 84 262 154 138 116 99 83 83 81 88 85 93 108 63 73 65 71 85 90 80 89 46 63 359 52 344 350 12 335 348 2 15 28 34 35 20 14
153 157 156 152 120 118 120 244 144 133 119 121 130 116 101 85 85 93 83 76 98 142 112 119 131 117 103 109 35 48 56 30 336 357 3 346 24 25 5 345 23 10 3
178 172 160 149 131 128 170 151 131 106 120 131 133 139 113 80 70 58 78 70 71 76 86 132 112 126 129 135 133 84 66 115 247 299 19 316 5 2 343 345 16 11 17
181 170 166 152 137 151 159 151 138 118 122 132 142 172 151 125 138 114 106 94 93 74 79 85 106 132 133 135 132 162 181 241 344 338 9 357 352 317 327 326 14 35 29
177 173 152 145 146 168 165 151 129 125 129 144 136 120 137 153 149 129 118 111 153 105 97 111 130 123 115 109 132 98 49 73 339 331 359 47 345 313 326 332 359 23 6
169 149 155 165 177 175 184 176 154 157 158 165 160 135 147 170 160 161 135 149 140 193 136 83 48 41 72 74 88 106 146 132 170 12 298 74 346 31 342 307 323 11 351